[[{"header":{"parameterUnit":"m.s-1","parameterCategory":1,"la1":30.2991,"la2":30.254,"lo1":-89.0895,"lo2":-89.0444,"dy":0.0017,"dx":0.0017,"nx":28,"ny":28,"refTime":"2023-03-31T21:00:00:Z","depth":0,"parameterNumber":2,"parameterNumberName":"U-component_of_WINDS"},"data":[0,0,0,0,0,0,0,0,0,0,0,0,0,0,0,0,0,0,0,0,0,0,0,0,0,0,0,0,0,0,0,0,0,0,0,0,0,0,0,0,0,0,0,0,0,0,0,0,0,0,0,0,0,0,0,0,0,0,-2.925,-2.925,0,-2.9278,-2.9278,-2.9279,-2.9283,-2.9283,-2.9282,-2.9282,-2.9312,-2.9313,-2.9314,0,0,0,0,0,0,0,0,0,0,0,0,0,-2.92,-2.9201,-2.925,-2.925,-2.925,-2.9278,-2.9278,-2.9279,-2.9283,-2.9283,-2.9282,-2.9282,-2.9311,-2.9313,-2.9314,0,0,0,0,0,0,0,0,0,0,0,0,0,-2.9224,-2.9201,-2.925,-2.9256,-2.9257,-2.9278,-2.9278,-2.9279,-2.9283,-2.9283,-2.9282,-2.9282,-2.9311,-2.9312,-2.9314,-2.9331,0,0,-2.9319,-2.9319,0,0,0,0,0,0,0,0,-2.9223,-2.9226,-2.9255,-2.9256,-2.9256,-2.9276,-2.9272,-2.9296,-2.9283,-2.9273,-2.9282,-2.9282,-2.93,-2.9303,-2.9309,-2.9332,-2.9334,-2.9319,-2.932,-2.932,-2.9321,0,0,0,0,0,0,0,-2.9221,-2.9225,-2.9261,-2.9255,-2.9256,-2.9257,-2.926,-2.9276,-2.9289,-2.9274,-2.9274,-2.9278,-2.9301,-2.9307,-2.931,-2.9334,-2.9319,-2.932,-2.9321,-2.9322,-2.9372,-2.9373,0,0,0,0,0,0,-2.9218,-2.9223,-2.926,-2.9262,-2.9238,-2.9259,-2.9262,-2.927,-2.9288,-2.9291,-2.9278,-2.9278,-2.9305,-2.9308,-2.9311,-2.9331,-2.932,-2.9322,-2.9323,-2.9372,-2.9372,-2.9373,0,0,0,0,0,0,-2.9217,-2.9222,-2.9259,-2.9243,-2.9248,-2.926,-2.9269,-2.9271,-2.9278,-2.9291,-2.9294,-2.9282,-2.9305,-2.9309,-2.9326,-2.9332,-2.9323,-2.9324,-2.9371,-2.9372,-2.9373,-2.9373,0,0,0,0,0,0,-2.9216,-2.9221,-2.9228,-2.9243,-2.9248,-2.9273,-2.927,-2.9272,-2.928,-2.928,-2.9296,-2.9298,-2.9305,-2.9323,-2.9327,-2.9334,-2.9325,-2.9371,-2.9372,-2.9372,-2.9372,-2.9373,-2.9374,0,0,0,0,0,-2.9214,-2.9227,-2.9228,-2.9232,-2.9257,-2.9274,-2.9277,-2.9284,-2.9281,-2.9287,-2.9296,-2.9298,-2.9331,-2.9325,-2.9329,-2.9337,-2.937,-2.9371,-2.9372,-2.9372,-2.9373,-2.9374,0,0,0,0,0,0,-2.9213,-2.9229,-2.923,-2.9249,-2.926,-2.9274,-2.9283,-2.9285,-2.9298,-2.9297,-2.9305,-2.9309,-2.9326,-2.9333,-2.9326,-2.9354,-2.935,-2.9352,-2.9348,-2.935,-2.9351,-2.9348,-2.9326,0,0,0,0,0,-2.9214,-2.9227,-2.924,-2.9255,-2.926,-2.9271,-2.9278,-2.9283,-2.9295,-2.9299,-2.9309,-2.9321,-2.9334,-2.9342,-2.9355,-2.9373,-2.9376,-2.9381,-2.9382,-2.9382,-2.9384,-2.9393,-2.9395,-2.9376,-2.9376,-2.9376,0,0,-2.9218,-2.9229,-2.9236,-2.9255,-2.9264,-2.9276,-2.9275,-2.9288,-2.9297,-2.9302,-2.9318,-2.9326,-2.9339,-2.9357,-2.9365,-2.9364,-2.939,-2.9384,-2.9384,-2.9385,-2.9394,-2.9396,-2.9398,-2.9377,-2.9376,-2.9376,0,0,-2.9231,-2.9241,-2.9254,-2.9263,-2.9276,-2.9283,-2.9286,-2.93,-2.9305,-2.9322,-2.9325,-2.9337,-2.9359,-2.9368,-2.9376,-2.9392,-2.9394,-2.9396,-2.9401,-2.941,-2.9412,-2.9413,-2.9418,-2.942,-2.9397,-2.9397,-2.9397,0,-2.9235,-2.9253,-2.926,-2.9273,-2.9281,-2.9285,-2.9298,-2.9306,-2.9324,-2.9329,-2.9327,-2.9355,-2.9365,-2.9384,-2.9388,-2.9394,-2.9398,-2.9394,-2.9411,-2.9412,-2.9414,-2.9419,-2.9421,-2.9398,-2.9398,-2.9398,-2.9397,0,-2.9256,-2.9269,-2.9278,-2.9293,-2.9302,-2.9315,-2.9324,-2.9333,-2.9336,-2.9343,-2.936,-2.9371,-2.9386,-2.9391,-2.9395,-2.9411,-2.941,-2.9409,-2.9406,-2.9416,-2.9421,-2.9423,-2.9398,-2.9398,-2.9398,-2.9398,0,0,-2.9269,-2.9288,-2.9291,-2.9298,-2.9313,-2.9323,-2.9336,-2.935,-2.9357,-2.9369,-2.938,-2.9398,-2.9398,-2.9407,-2.9412,-2.942,-2.9431,-2.9418,-2.9419,-2.942,-2.9449,-2.9449,-2.9451,-2.9432,-2.9433,-2.9433,-2.9448,0,-2.9284,-2.9307,-2.9313,-2.9332,-2.9344,-2.9348,-2.9359,-2.9369,-2.9376,-2.9387,-2.9395,-2.9407,-2.9406,-2.9411,-2.942,-2.9428,-2.9437,-2.9427,-2.9443,-2.9443,-2.9439,-2.9453,-2.9453,-2.9466,-2.945,-2.945,-2.945,0,-2.9304,-2.9315,-2.9335,-2.9348,-2.9353,-2.9363,-2.9376,-2.9387,-2.9399,-2.9403,-2.9412,-2.9416,-2.943,-2.9426,-2.9445,-2.9438,-2.9445,-2.945,-2.945,-2.9452,-2.9447,-2.9455,-2.9471,-2.9472,-2.9453,-2.9453,-2.9453,0,-2.9311,-2.9331,-2.9346,-2.9352,-2.9367,-2.9374,-2.9381,-2.9392,-2.94,-2.9412,-2.9417,-2.943,-2.9437,-2.9447,-2.9455,-2.9451,-2.9473,-2.9469,-2.9476,-2.9476,-2.9481,-2.948,-2.9497,-2.9486,-2.9486,-2.9486,-2.9486,0,-2.9326,-2.9338,-2.9349,-2.9358,-2.9371,-2.9379,-2.9392,-2.9399,-2.9409,-2.9419,-2.9424,-2.9433,-2.9443,-2.9454,-2.946,-2.9474,-2.9478,-2.9481,-2.9483,-2.9481,-2.948,-2.9485,-2.9484,-2.9486,-2.9486,-2.9486,-2.9486,0,-2.9336,-2.9344,-2.936,-2.9373,-2.9376,-2.9386,-2.9397,-2.9406,-2.9412,-2.9425,-2.9429,-2.944,-2.9453,-2.9461,-2.9478,-2.9482,-2.9497,-2.9499,-2.9493,-2.9494,-2.95,-2.9499,-2.9521,-2.9524,-2.951,-2.9511,-2.9511,0,-2.9345,-2.9355,-2.9368,-2.9375,-2.9382,-2.9393,-2.9401,-2.9408,-2.9416,-2.943,-2.9437,-2.945,-2.9461,-2.9482,-2.9491,-2.9504,-2.9506,-2.9512,-2.9508,-2.9505,-2.9505,-2.9504,-2.9505,-2.9513,-2.9513,-2.9513,-2.9513,0,-2.9361,-2.9364,-2.9375,-2.9386,-2.9395,-2.9405,-2.9415,-2.9421,-2.943,-2.9439,-2.9452,-2.946,-2.9477,-2.949,-2.9503,-2.9511,-2.9513,-2.9515,-2.9517,-2.9515,-2.9511,-2.9512,-2.9495,-2.9514,-2.9514,-2.9514,-2.9514,-2.9514,-2.937,-2.9378,-2.9389,-2.9401,-2.9409,-2.9418,-2.9426,-2.9434,-2.9445,-2.9458,-2.9462,-2.9476,-2.9487,-2.9505,-2.9513,-2.9523,-2.9523,-2.9526,-2.9527,-2.9528,-2.9527,-2.9509,-2.9526,-2.9526,-2.9526,-2.9526,-2.9526,0,-2.9385,-2.9392,-2.9403,-2.9416,-2.9425,-2.9426,-2.9437,-2.9445,-2.9457,-2.9467,-2.9477,-2.9492,-2.9504,-2.9514,-2.9527,-2.9534,-2.9535,-2.9537,-2.9536,-2.9538,-2.9527,-2.9524,-2.9535,-2.9535,-2.9535,-2.9535,-2.9535,-2.9535,-2.9394,-2.9408,-2.9412,-2.9429,-2.9436,-2.9449,-2.9455,-2.9463,-2.9471,-2.9487,-2.9497,-2.9504,-2.9514,-2.9527,-2.9538,-2.9541,-2.9546,-2.9547,-2.955,-2.954,-2.9539,-2.9538,-2.9534,-2.9548,-2.9548,-2.9559,-2.9559,-2.9559]},{"header":{"parameterUnit":"m.s-1","parameterCategory":1,"la1":30.2991,"la2":30.254,"lo1":-89.0895,"lo2":-89.0444,"dy":0.0017,"dx":0.0017,"nx":28,"ny":28,"refTime":"2023-03-31T21:00:00:Z","depth":0,"parameterNumber":3,"parameterNumberName":"V-component_of_WINDS"},"data":[0,0,0,0,0,0,0,0,0,0,0,0,0,0,0,0,0,0,0,0,0,0,0,0,0,0,0,0,0,0,0,0,0,0,0,0,0,0,0,0,0,0,0,0,0,0,0,0,0,0,0,0,0,0,0,0,0,0,4.5655,4.5655,0,4.5645,4.5645,4.5645,4.5631,4.5631,4.5631,4.563,4.5617,4.5617,4.5617,0,0,0,0,0,0,0,0,0,0,0,0,0,4.5661,4.5661,4.5655,4.5655,4.5655,4.5645,4.5645,4.5645,4.5631,4.5631,4.5631,4.563,4.5617,4.5617,4.5617,0,0,0,0,0,0,0,0,0,0,0,0,0,4.5655,4.5661,4.5655,4.5647,4.5646,4.5645,4.5645,4.5645,4.5631,4.5631,4.5631,4.563,4.5617,4.5617,4.5617,4.5622,0,0,4.5616,4.5616,0,0,0,0,0,0,0,0,4.5656,4.5655,4.5648,4.5648,4.5647,4.5639,4.5642,4.5637,4.5631,4.5637,4.563,4.563,4.5624,4.5624,4.5622,4.5621,4.5621,4.5616,4.5616,4.5616,4.5616,0,0,0,0,0,0,0,4.5656,4.5655,4.5651,4.5648,4.5647,4.5643,4.5642,4.5641,4.5632,4.5636,4.5635,4.5634,4.5624,4.5622,4.5622,4.562,4.5616,4.5616,4.5616,4.5615,4.5624,4.5625,0,0,0,0,0,0,4.5658,4.5656,4.5651,4.5651,4.5651,4.5643,4.5642,4.5642,4.5632,4.5631,4.5635,4.5634,4.5623,4.5622,4.5621,4.5628,4.5616,4.5615,4.5615,4.5624,4.5625,4.5625,0,0,0,0,0,0,4.5658,4.5658,4.5652,4.5653,4.5652,4.5644,4.5643,4.5642,4.564,4.5631,4.5629,4.5635,4.5623,4.5622,4.5622,4.5627,4.5615,4.5615,4.5624,4.5624,4.5625,4.5641,0,0,0,0,0,0,4.5658,4.5658,4.566,4.5653,4.5652,4.5654,4.5644,4.5642,4.564,4.5639,4.5631,4.5629,4.5622,4.5623,4.5622,4.5627,4.5615,4.5623,4.5624,4.5625,4.564,4.5642,4.5644,0,0,0,0,0,4.5659,4.5664,4.566,4.566,4.5655,4.5654,4.5653,4.5646,4.5641,4.5643,4.5637,4.563,4.5627,4.5623,4.5622,4.5627,4.5623,4.5624,4.5625,4.5639,4.5642,4.5644,0,0,0,0,0,0,4.567,4.5663,4.5659,4.5662,4.5659,4.5652,4.5654,4.5648,4.5646,4.5645,4.5635,4.5633,4.5635,4.5631,4.5627,4.5632,4.5624,4.5624,4.5635,4.5637,4.5639,4.5641,4.5615,0,0,0,0,0,4.5673,4.5674,4.5667,4.5671,4.567,4.5662,4.5662,4.5657,4.5652,4.5651,4.5645,4.564,4.5639,4.5637,4.5635,4.5639,4.5638,4.5642,4.5644,4.5645,4.5646,4.5649,4.5652,4.5628,4.5628,4.5628,0,0,4.568,4.5676,4.5676,4.5673,4.567,4.5671,4.5661,4.5662,4.5662,4.565,4.5651,4.5647,4.5641,4.5644,4.5645,4.5641,4.5653,4.5646,4.5648,4.5648,4.5651,4.5653,4.5655,4.5628,4.5628,4.5628,0,0,4.5692,4.5688,4.5692,4.569,4.5686,4.5681,4.5682,4.5676,4.5673,4.5674,4.5666,4.5665,4.5662,4.5659,4.5657,4.5669,4.5663,4.5668,4.5679,4.5682,4.5684,4.5686,4.5691,4.5693,4.5669,4.5669,4.5669,0,4.5699,4.5701,4.5694,4.5696,4.5696,4.5686,4.569,4.5687,4.5682,4.5682,4.5677,4.5674,4.5669,4.5672,4.5675,4.5673,4.5675,4.567,4.5684,4.5686,4.5687,4.5693,4.5695,4.567,4.567,4.567,4.567,0,4.5712,4.5713,4.5716,4.5714,4.5713,4.5716,4.5709,4.5709,4.5704,4.57,4.5702,4.5696,4.5693,4.5693,4.5687,4.5695,4.5693,4.5686,4.5678,4.5691,4.5696,4.5698,4.5672,4.5671,4.5671,4.5671,0,0,4.573,4.5725,4.5727,4.5726,4.5722,4.5722,4.5724,4.5723,4.5724,4.5721,4.5723,4.5721,4.5716,4.5714,4.5707,4.571,4.5722,4.5703,4.5703,4.5708,4.5732,4.5738,4.5741,4.5718,4.5718,4.5718,4.5733,0,4.5742,4.5747,4.5742,4.5748,4.575,4.5741,4.5744,4.5741,4.5737,4.5737,4.5733,4.5732,4.5724,4.5723,4.5725,4.572,4.5727,4.5719,4.572,4.572,4.5723,4.5743,4.5749,4.5764,4.5735,4.5735,4.5736,0,4.5757,4.5757,4.5764,4.576,4.5761,4.5763,4.5762,4.5763,4.576,4.5757,4.5755,4.5749,4.5751,4.5742,4.5745,4.574,4.574,4.5737,4.5738,4.5738,4.5729,4.5746,4.5768,4.5771,4.5738,4.5738,4.5738,0,4.5771,4.5772,4.5777,4.5777,4.5773,4.5775,4.5773,4.577,4.577,4.5769,4.5769,4.5767,4.5767,4.5766,4.5759,4.5753,4.5763,4.5754,4.5761,4.5762,4.5765,4.5765,4.5789,4.5762,4.5762,4.5762,4.5762,0,4.5786,4.5791,4.5784,4.5787,4.5793,4.5786,4.5791,4.5789,4.5786,4.5788,4.578,4.5782,4.5773,4.5774,4.5768,4.5772,4.5772,4.577,4.5768,4.5771,4.5772,4.5772,4.5771,4.5763,4.5763,4.5763,4.5763,0,4.5803,4.5799,4.5804,4.5801,4.58,4.5804,4.5801,4.5804,4.58,4.5803,4.5803,4.5797,4.5798,4.5791,4.579,4.5786,4.5794,4.579,4.5795,4.5795,4.5803,4.5803,4.5829,4.5833,4.5803,4.5803,4.5803,0,4.5813,4.5817,4.5815,4.5817,4.5816,4.5818,4.5819,4.5813,4.5814,4.5812,4.5815,4.5815,4.5816,4.5818,4.5813,4.5812,4.5809,4.5818,4.5809,4.5812,4.5811,4.5812,4.5813,4.5821,4.5821,4.5821,4.5821,0,4.5832,4.583,4.5832,4.5834,4.5836,4.5836,4.5836,4.5838,4.5831,4.5833,4.5835,4.5835,4.5835,4.5836,4.5835,4.5833,4.5826,4.5824,4.5827,4.583,4.5834,4.5834,4.5802,4.5824,4.5824,4.5824,4.5823,4.5823,4.5847,4.5851,4.5851,4.5854,4.5853,4.5854,4.5857,4.5855,4.5856,4.5857,4.5853,4.5856,4.5854,4.5853,4.5851,4.5853,4.5849,4.5851,4.5852,4.5853,4.5856,4.5833,4.5852,4.5852,4.5852,4.5852,4.5852,0,4.5867,4.5867,4.587,4.5871,4.5874,4.5868,4.5869,4.5871,4.5874,4.5873,4.5875,4.5878,4.5879,4.5875,4.5875,4.5878,4.5875,4.5879,4.5879,4.5879,4.5858,4.5858,4.5881,4.5881,4.5881,4.5881,4.5881,4.5881,4.5877,4.5885,4.5883,4.589,4.589,4.5894,4.5895,4.5896,4.5895,4.5899,4.5901,4.5899,4.5897,4.5898,4.5899,4.5898,4.5899,4.5904,4.5902,4.5883,4.588,4.5877,4.5877,4.5904,4.5904,4.5922,4.5922,4.5922]}]]